Weather History for Opa Locka, FL

Change the Weather History Date:

Friday, November 8, 2013

  Actual Average Record
Temperature  
Mean Temperature 78 °F -  
Max Temperature 84 °F 81 °F 87 °F (1958)
Min Temperature 71 °F 65 °F 49 °F (1985)
Cooling Degree Days 12    
Growing Degree Days 28 (Base 50)    
Moisture  
Dew Point 71 °F    
Average Humidity 85    
Maximum Humidity 97    
Minimum Humidity 55    
Precipitation  
Precipitation 0.00 in - - ()
Sea Level Pressure  
Sea Level Pressure 30.01 in    
Wind  
Wind Speed 9 mph (NNE)    
Max Wind Speed 20 mph    
Max Gust Speed 25 mph    
Visibility 10 miles    
Events Rain    
Averages and records for this station are not official NWS values.
T = Trace of Precipitation, MM = Missing Value Source: NWS Daily Summary

Daily Weather History Graph

Daily Weather History Graph

Search for Another Location

Airport:

Trip Planner

Search our weather history database for the weather conditions in past years. The results will help you decide how hot, cold, wet, or windy it might be!

Date:

Astronomy

Nov. 08, 2013 Rise Set
Actual Time 6:34 AM EST 5:35 PM EST
Civil Twilight 6:10 AM EST 5:59 PM EST
Nautical Twilight 5:42 AM EST 6:26 PM EST
Astronomical Twilight 5:15 AM EST 6:53 PM EST
Moon 11:28 AM EST (11/8) 10:52 PM EST (11/8)
Length of Visible Light 11h 48m
Length of Day
11h 00m
Waxing Crescent, 33% of the Moon is Illuminated
Nov 8
Waxing Crescent
Nov 10
First Quarter
Nov 17
Full
Nov 25
Last Quarter
Dec 2
New

Hourly Weather History & Observations

Time (EST) Temp. Heat Index Dew Point Humidity Pressure Visibility Wind Dir Wind Speed Gust Speed Precip Events Conditions
12:53 AM 73.0 °F - 69.1 °F 87% 29.97 in 10.0 mi North 9.2 mph - N/A   Clear
1:53 AM 73.0 °F - 69.1 °F 87% 29.96 in 10.0 mi North 4.6 mph - N/A   Clear
2:53 AM 72.0 °F - 68.0 °F 87% 29.96 in 10.0 mi North 4.6 mph - N/A   Clear
3:53 AM 72.0 °F - 68.0 °F 87% 29.96 in 10.0 mi NNW 8.1 mph - N/A   Clear
4:53 AM 71.1 °F - 66.9 °F 87% 29.97 in 10.0 mi NNW 8.1 mph - N/A   Clear
5:53 AM 72.0 °F - 68.0 °F 87% 29.98 in 10.0 mi North 8.1 mph - N/A   Mostly Cloudy
6:53 AM 73.0 °F - 70.0 °F 90% 30.00 in 10.0 mi North 8.1 mph - N/A   Overcast
7:53 AM 73.9 °F - 71.1 °F 91% 30.01 in 10.0 mi North 11.5 mph - 0.00 in   Mostly Cloudy
8:53 AM 73.9 °F - 72.0 °F 93% 30.03 in 5.0 mi NNE 9.2 mph - 0.00 in Rain Light Rain
9:10 AM 73.4 °F - 71.6 °F 94% 30.03 in 9.0 mi North 8.1 mph - 0.00 in Rain Light Rain
9:21 AM 73.4 °F - 71.6 °F 94% 30.03 in 10.0 mi North 5.8 mph - 0.00 in Rain Light Rain
9:53 AM 75.0 °F - 71.1 °F 87% 30.03 in 10.0 mi North 5.8 mph - 0.00 in   Overcast
10:53 AM 79.0 °F - 72.0 °F 79% 30.02 in 10.0 mi NE 6.9 mph - N/A   Overcast
11:53 AM 82.0 °F 85.9 °F 70.0 °F 67% 30.00 in 10.0 mi ENE 18.4 mph 25.3 mph N/A   Overcast
12:53 PM 84.9 °F 87.6 °F 66.9 °F 55% 29.99 in 10.0 mi ENE 19.6 mph 25.3 mph N/A   Mostly Cloudy
1:53 PM 84.9 °F 87.6 °F 66.9 °F 55% 29.97 in 10.0 mi ENE 16.1 mph 21.9 mph N/A   Mostly Cloudy
2:53 PM 84.0 °F 86.5 °F 66.9 °F 56% 29.97 in 10.0 mi ENE 15.0 mph 23.0 mph N/A   Clear
3:53 PM 82.9 °F 85.8 °F 68.0 °F 60% 29.98 in 10.0 mi ENE 16.1 mph - N/A   Scattered Clouds
4:53 PM 81.0 °F 84.4 °F 70.0 °F 69% 29.99 in 10.0 mi NE 16.1 mph - N/A   Scattered Clouds
5:53 PM 75.9 °F - 72.0 °F 87% 30.00 in 10.0 mi NNE 5.8 mph - 0.00 in Rain Light Rain
6:53 PM 75.0 °F - 73.0 °F 94% 30.02 in 10.0 mi NNW 9.2 mph - 0.00 in   Overcast
7:48 PM 75.2 °F - 73.4 °F 94% 30.03 in 10.0 mi NNW 8.1 mph - 0.00 in Rain Light Rain
7:53 PM 75.0 °F - 73.0 °F 94% 30.03 in 10.0 mi NNW 6.9 mph - 0.00 in Rain Light Rain
8:00 PM 75.2 °F - 73.4 °F 94% 30.03 in 10.0 mi NNW 6.9 mph - 0.00 in Rain Light Rain
8:53 PM 75.0 °F - 73.0 °F 94% 30.04 in 10.0 mi North 5.8 mph - 0.00 in   Overcast
9:28 PM 75.2 °F - 73.4 °F 94% 30.04 in 10.0 mi NNE 10.4 mph - 0.00 in Rain Light Rain
9:46 PM 75.2 °F - 73.4 °F 94% 30.04 in 5.0 mi ENE 11.5 mph - N/A Rain Heavy Rain
9:53 PM 73.9 °F - 73.0 °F 97% 30.05 in 7.0 mi NE 13.8 mph 24.2 mph N/A Rain Rain
10:19 PM 73.4 °F - 71.6 °F 94% 30.05 in 8.0 mi ENE 13.8 mph - N/A Rain Rain
10:53 PM 75.0 °F - 73.0 °F 94% 30.04 in 10.0 mi ENE 10.4 mph - N/A Rain Light Rain
11:50 PM 75.2 °F - 73.4 °F 94% 30.03 in 10.0 mi ENE 12.7 mph 19.6 mph N/A   Overcast
11:53 PM 75.9 °F - 73.0 °F 91% 30.04 in 10.0 mi ENE 18.4 mph 23.0 mph N/A   Overcast